Regional Weather Roundup
Issued by NWS

Home | Current Version | Previous Version | Text Only | Print | Product List | Glossary On
Versions: 1 2 3 4 5 6 7 8 9 10 11 12 13 14 15 16 17 18 19 20 21 22 23 24 25 26 27 28 29 30 31 32 33 34 35 36 37 38 39 40 41 42 43 44 45 46 47 48 49 50
343
ASUS44 KJAN 300410
RWRMS

MISSISSIPPI HOURLY WEATHER ROUNDUP
NATIONAL WEATHER SERVICE JACKSON MS
1000 PM CST THU JAN 29 2015

NOTE: "FAIR: INDICATES FEW OR NO CLOUDS BELOW 12,000 FEET WITH NO
SIGNIFICANT WEATHER AND/OR OBSTRUCTIONS TO VISIBILITY.

MSZ001>002-007>008-010>013-018>021-025>028-034>036-300500-
NORTHWEST MISSISSIPPI

CITY           SKY/WX    TMP DP  RH WIND       PRES   REMARKS
CLARKSDALE     CLOUDY    45  32  61 N16G25    30.42R
CLEVELAND      CLOUDY    45  36  70 N22G35    30.40R
GREENWOOD      PTCLDY    45  35  68 N18G24    30.37R
GREENVILLE     PTCLDY    45  34  65 N22G29    30.40R
GRENADA        CLOUDY    45  34  65 N14G23    30.38R
OLIVE BRANCH   PTCLDY    43  32  65 N12G20    30.40R
OXFORD         CLOUDY    41  32  70 N9G18     30.39R
TUNICA         CLOUDY    45  32  61 N22G29    30.42R
$$

MSZ003>006-009-014>017-022>024-029>033-037>039-300500-
NORTHEAST MISSISSIPPI

CITY           SKY/WX    TMP DP  RH WIND       PRES   REMARKS
COLUMBUS AFB   MOCLDY    48  36  61 N15G25    30.31R
CORINTH        CLOUDY    43  32  65 NW12      30.35R
GOLDN TRIANGLE MOCLDY    48  36  61 N17G24    30.30R
STARKVILLE     FAIR      48  37  66 N9G22     30.31R
TUPELO         CLOUDY    45  33  63 N18G30    30.35R
$$

MSZ040-058-300500-
CENTRAL MISSISSIPPI

CITY           SKY/WX    TMP DP  RH WIND       PRES   REMARKS
JACKSON INTL   MOCLDY    54  40  59 N21G28    30.30R
JACKSON HAWKNS CLEAR     54  40  59 N13G23    30.31R
MERIDIAN KEY   CLEAR     58  48  69 N10       30.23R
MERIDIAN NAS   PTCLDY    59  45  59 NW17G23   30.24R
RAYMOND        FAIR      52  48  87 MISG      30.32R
VICKSBURG      CLEAR     51  40  65 N23G33    30.35R
$$

MSZ059>079-300500-
SOUTH MISSISSIPPI

CITY           SKY/WX    TMP DP  RH WIND       PRES   REMARKS
BROOKHAVEN     FAIR      61  52  72 N8        30.27R
HATTIESBURG    PTCLDY    55  52  89 CALM      30.21S
MCCOMB         MOCLDY    59  50  72 NW5       30.23R
NATCHEZ        PTCLDY    59  43  55 N13G23    30.28R
PINE BELT      MOCLDY    55  48  76 CALM      30.22R
$$

MSZ080>082-300500-
COASTAL MISSISSIPPI

CITY           SKY/WX    TMP DP  RH WIND       PRES   REMARKS
BILOXI         PTCLDY    60  59  97 W8        30.21R
PASCAGOULA     CLEAR     59  56  89 SW7       30.21S
GULFPORT       CLEAR     60  57  89 W3        30.21R
$$



USA.gov is the U.S. government's official web portal to all federal, state and local government web resources and services.